Location: Campillo
(40.8621°N, 4.2488°W)
Time: 12:04:57
(UTC+00:00)

SJ-6B - Pass Details

Date: 03 October 2021
Orbit: 508 x 581 km, 97.6° (Epoch: 26 October)

Event Time Altitude Azimuth Distance (km) Brightness Sun altitude
Exits shadow 20:36:59 27° 316° (NW) 1,102 4.8 -30.7°
Drops below altitude 10° 20:39:07 10° 334° (NNW) 1,865 6.1 -31.1°
Sets 20:41:20 0° 341° (NNW) 2,755 6.9 -31.5°
